Temp
7 7 7 7 7 7 7 7 6 6 6 6 6 6 6 6 6 7 7 7 7 7 7 8 8 8 8 8 8 8 8 9 9 9 9 9 10 10 10 10 11 11 11 11 12 12 12 12 12 11 11 11 11 11 11 11 11 10 10 10 10 10 10 10 10 10 11 11 11
7 7 7 6 6 6 6 6 6 6 6 6 6 6 6 6 6 6 6 7 7 7 7 7 7 7 8 8 8 8 8 8 9 9 9 9 9 9 10 10 10 11 11 11 11 12 12 12 12 12 12 12 11 11 11 12 11 11 11 11 11 11 11 11 11 11 11 11 11
7 7 7 6 6 6 6 6 6 6 6 6 6 6 6 6 6 6 6 6 7 7 7 7 7 7 7 8 8 8 8 8 8 8 9 9 9 9 9 10 10 10 11 11 11 11 12 12 12 12 12 13 13 13 12 12 12 12 11 11 11 11 11 11 11 11 11 11 12
7 7 7 6 6 6 6 6 6 6 6 6 6 6 6 6 6 6 6 6 6 7 7 7 7 7 7 7 8 8 8 8 8 8 8 8 9 9 9 9 9 10 10 11 11 11 11 11 12 12 12 12 13 13 13 13 13 12 12 12 12 12 12 12 12 13 13 13 13
7 7 6 6 6 6 6 6 6 6 7 6 6 6 6 6 6 6 6 6 6 6 7 7 7 7 7 7 7 8 8 8 8 8 8 8 8 9 9 9 9 9 10 10 10 11 11 11 11 11 11 12 12 12 12 12 13 13 13 13 13 12 12 13 13 13 13 13 13
6 7 6 6 6 6 6 6 6 6 7 6 6 6 5 5 5 6 6 6 6 6 6 7 7 7 7 7 7 7 8 8 8 8 8 8 8 8 8 9 9 9 9 10 10 10 11 11 11 11 11 11 11 11 12 12 12 12 13 12 12 12 12 12 13 13 13 13 13
6 6 6 6 6 6 6 6 6 6 6 6 6 5 5 5 5 5 5 6 6 6 6 6 6 6 6 7 7 7 7 7 8 8 8 8 8 8 8 8 8 9 9 9 10 10 10 11 11 11 11 11 11 11 11 11 12 12 12 13 13 13 12 12 12 12 12 13 13
6 6 6 6 6 6 6 6 6 6 6 6 6 5 5 5 5 5 5 5 5 6 6 6 6 6 6 6 7 7 7 7 7 7 8 8 8 8 8 8 8 8 9 9 9 9 10 10 11 11 11 10 10 11 11 11 11 11 12 12 12 12 12 12 12 12 12 12 12
6 6 6 6 6 6 6 6 6 6 6 6 5 5 5 5 5 5 5 5 5 5 5 6 6 6 6 6 6 7 7 7 7 7 7 7 7 8 8 8 8 8 9 9 9 9 9 10 10 11 11 10 10 10 11 11 11 11 11 11 12 12 12 12 12 12 12 12 12
6 6 6 6 6 6 6 6 6 6 6 5 5 5 4 4 4 4 4 4 5 5 5 5 5 6 6 6 6 6 6 7 7 7 7 7 7 7 7 8 8 8 8 9 9 9 9 9 10 10 11 10 10 10 10 10 11 11 11 11 11 11 11 11 11 11 11 11 11
6 6 6 6 6 6 6 6 6 6 5 5 5 5 4 4 4 4 4 4 4 5 5 5 5 5 5 6 6 6 6 6 6 7 7 7 7 7 7 7 7 8 8 8 8 9 9 9 9 10 10 11 10 10 10 10 10 10 10 11 11 11 11 11 11 11 11 11 11
6 6 6 6 5 6 6 6 6 5 5 5 5 5 4 4 4 4 4 4 4 4 4 4 5 5 5 5 5 6 6 6 6 6 6 6 7 7 7 7 7 7 8 8 8 8 9 9 9 9 10 10 10 10 10 10 10 10 10 10 10 10 11 11 11 11 11 11 11
6 6 6 6 5 6 6 6 6 5 5 5 5 5 4 4 4 4 4 4 4 4 4 4 4 4 5 5 5 5 5 6 6 6 6 6 6 6 7 7 7 7 7 8 8 8 8 9 9 9 9 10 10 10 10 10 10 10 10 10 10 10 10 10 11 11 11 10 10
6 6 6 6 6 6 6 6 6 5 5 5 5 5 4 4 4 4 4 4 4 4 4 4 4 4 4 4 4 5 5 5 5 6 6 6 6 6 6 6 7 7 7 7 7 8 8 8 9 9 9 9 10 10 10 10 10 10 10 10 10 10 10 10 10 10 10 10 10
7 6 6 6 6 6 6 6 6 5 5 5 5 5 4 4 4 4 4 4 4 4 4 4 4 4 4 4 4 4 4 5 5 5 5 5 6 6 6 6 6 6 7 7 7 7 8 8 8 9 9 9 10 10 10 10 10 10 10 10 10 10 10 10 10 10 10 10 10
7 6 6 6 6 6 6 6 6 6 5 5 5 5 5 5 4 4 4 4 4 4 4 4 4 3 3 3 3 4 4 4 4 5 5 5 5 5 5 6 6 6 6 6 7 7 8 8 8 9 9 9 9 10 10 10 10 10 10 10 10 9 10 10 10 10 10 10 10
7 7 6 6 6 6 6 6 6 6 6 6 5 5 5 5 5 5 4 4 4 4 4 4 4 3 3 3 3 3 4 4 4 4 4 4 5 5 5 5 6 6 6 6 6 7 7 8 8 8 9 9 9 10 10 10 10 10 10 10 10 9 9 9 9 9 9 10 10
7 7 7 6 6 6 6 6 6 6 6 6 6 5 5 5 5 5 5 4 4 4 4 4 4 3 3 3 3 3 4 4 4 4 4 4 4 4 4 5 5 5 6 6 6 6 7 7 8 8 9 9 9 9 10 10 10 10 10 10 10 9 9 9 9 9 9 9 9
7 7 7 7 6 6 6 6 6 6 6 6 6 6 5 5 5 5 5 5 4 4 4 4 4 4 3 3 3 3 4 4 4 4 4 4 4 4 4 4 5 5 5 5 5 6 7 7 7 8 8 9 9 9 9 10 10 10 10 10 10 10 9 9 9 9 9 9 9
7 7 7 7 6 6 6 6 6 6 6 6 6 5 5 5 5 5 5 5 5 4 4 4 4 3 3 3 3 3 3 4 4 4 4 4 4 4 4 4 4 5 5 5 5 5 6 7 7 7 8 8 9 9 9 9 10 10 10 10 10 10 10 9 9 9 9 9 9
7 7 7 7 6 6 6 6 6 6 6 6 5 5 5 5 5 5 5 5 5 5 5 4 4 3 3 3 3 3 3 3 4 4 4 4 4 4 4 4 4 5 5 5 5 5 6 6 7 7 7 8 8 9 9 9 9 9 9 9 10 10 10 9 9 9 9 9 9
7 7 7 7 6 6 6 6 6 6 6 5 5 5 5 5 5 5 5 5 5 5 5 4 4 4 3 3 3 3 3 3 3 4 4 4 4 4 3 4 4 4 5 5 5 5 5 6 7 7 7 7 8 8 8 9 9 9 9 9 9 9 10 10 9 9 9 9 9
8 7 7 7 6 6 6 6 6 6 5 5 5 5 5 6 6 6 5 5 5 5 5 4 4 4 4 3 3 3 3 3 3 3 3 4 4 4 3 3 4 4 5 5 5 5 5 5 6 7 7 7 7 8 8 8 8 8 8 9 9 9 9 9 9 9 9 9 9
8 7 7 7 6 6 6 6 6 6 5 5 5 5 6 6 6 6 6 5 5 5 5 4 4 4 4 3 3 3 3 3 3 3 3 3 4 3 3 3 4 4 5 5 5 5 5 5 5 6 7 7 7 7 8 8 8 8 8 8 8 9 9 9 9 9 9 9 9
7 7 7 7 6 6 6 6 6 6 5 5 5 5 6 6 6 6 6 6 5 5 5 5 4 4 4 3 3 3 3 3 3 3 3 3 3 3 3 3 3 4 4 5 5 5 5 5 5 6 6 7 7 7 7 7 7 7 8 8 8 8 8 9 9 9 9 9 9
7 7 7 7 6 6 6 6 6 6 6 5 5 6 6 6 6 6 6 6 5 5 5 5 5 4 4 4 3 3 3 3 3 3 3 3 3 3 3 3 3 4 4 5 5 5 5 5 5 5 5 6 6 7 7 7 7 7 7 7 7 8 8 8 8 9 9 9 9
7 7 7 7 6 6 6 6 6 6 6 6 5 5 6 6 6 6 6 6 5 5 5 5 5 4 4 4 3 3 3 3 3 3 3 3 4 3 3 3 3 3 4 4 5 5 5 5 5 5 5 5 6 6 7 7 7 7 7 7 7 7 7 8 8 8 9 9 9
8 7 7 6 6 6 6 6 6 6 6 6 5 5 6 6 6 6 6 6 5 5 5 5 5 4 4 4 4 3 3 3 3 3 3 4 4 3 3 3 3 3 4 4 4 5 5 5 5 5 5 5 6 6 6 7 6 6 7 7 7 7 7 7 7 8 8 9 9
8 7 7 7 6 6 6 6 6 6 6 6 5 5 5 6 6 6 6 6 5 5 5 5 5 4 4 4 4 3 3 3 3 3 3 4 4 4 3 3 3 3 4 4 4 4 4 5 5 5 5 5 5 6 6 6 6 6 6 6 7 7 7 7 7 7 8 8 9
8 7 7 7 7 6 6 6 6 6 6 6 5 5 5 5 5 5 5 5 5 5 5 5 5 5 4 4 4 3 3 2 2 3 3 3 4 4 3 3 3 3 3 4 4 4 4 4 5 5 5 5 5 5 6 6 6 6 6 6 6 6 6 6 7 7 7 8 8
8 7 7 7 7 7 6 6 6 6 6 6 5 5 5 5 5 5 5 5 5 5 5 5 5 5 4 4 4 3 3 3 2 3 3 3 4 4 3 3 3 3 3 4 4 4 4 4 4 5 5 5 5 5 6 6 6 6 6 6 6 6 6 6 6 6 7 7 8
8 7 7 7 7 7 6 6 6 5 5 6 5 5 5 5 5 5 5 5 5 5 5 5 5 4 4 4 4 3 3 3 3 2 3 3 4 4 3 3 3 3 3 3 4 4 4 4 4 4 4 4 5 5 5 5 5 6 6 6 6 6 6 6 6 6 6 7 7
8 7 7 7 7 7 6 6 6 5 5 5 5 5 5 5 5 5 5 5 5 5 5 5 5 4 4 4 4 4 3 3 3 2 3 3 3 4 3 3 3 3 3 3 3 4 4 4 4 4 4 4 4 5 5 5 5 5 5 5 5 5 5 6 6 6 6 6 6
8 7 7 7 7 7 6 6 6 5 5 5 5 5 5 5 5 5 5 5 5 5 5 5 5 4 4 4 4 4 3 3 3 3 2 3 3 3 3 3 3 3 3 3 3 3 3 4 4 4 4 4 4 4 4 4 4 5 5 5 5 5 5 5 5 6 6 6 6
8 8 7 7 7 7 6 6 6 6 5 5 5 5 5 5 5 5 5 5 5 5 5 5 5 4 4 4 4 4 3 3 3 3 2 2 3 3 3 3 3 3 3 3 3 3 3 3 3 3 3 3 3 4 4 4 4 4 4 4 4 5 5 5 5 5 5 6 6
8 8 7 7 7 7 6 6 6 6 6 5 5 5 5 5 5 5 5 5 5 5 5 5 4 4 4 4 4 4 4 3 3 3 3 2 3 3 3 3 3 3 2 3 3 3 3 3 3 3 3 3 3 3 3 3 3 3 3 4 4 4 4 4 4 5 5 5 6
8 8 7 7 7 7 6 6 6 6 5 5 5 5 5 5 5 5 5 4 4 4 4 4 4 4 4 4 4 4 4 4 3 3 3 3 3 3 3 3 3 3 2 2 3 3 3 3 3 3 3 2 3 3 3 3 3 3 3 3 3 4 4 4 4 4 4 5 5
8 8 7 7 7 6 6 6 6 6 5 5 5 5 5 5 4 4 4 4 4 4 4 4 4 4 4 4 4 4 4 4 4 3 3 3 3 3 3 3 3 3 3 2 2 3 3 3 3 3 2 2 2 3 3 2 2 2 2 3 3 3 3 4 4 4 4 4 5
8 8 8 7 7 6 6 6 6 6 5 5 5 5 5 5 4 4 4 4 4 4 4 4 4 4 4 4 4 4 4 4 4 4 3 3 3 3 3 3 3 3 3 2 2 2 3 3 3 3 2 2 2 2 2 2 2 2 2 2 2 3 3 3 3 4 4 4 4
8 8 8 7 7 6 6 6 6 6 6 5 5 5 5 5 4 4 4 4 4 4 4 4 4 4 4 4 4 4 4 4 4 4 4 3 3 3 3 3 3 3 3 2 2 2 2 3 3 3 2 2 2 2 2 2 2 2 2 2 2 2 3 3 3 3 3 4 4
9 8 8 7 7 6 6 6 6 6 6 5 5 5 5 4 5 4 4 4 4 4 4 4 4 4 4 4 4 4 4 4 4 4 4 4 4 4 3 3 3 3 3 2 2 2 2 3 3 3 2 2 2 2 2 2 2 2 2 2 2 2 2 3 3 3 3 3 3
Height
739 738 738 738 738 737 737 736 736 735 735 734 734 733 732 731 731 730 729 728 727 726 725 724 723 722 720 718 717 715 713 711 709 707 705 704 702 700 698 697 695 693 691 689 687 685 684 682 680 679 678 677 677 676 675 675 675 675 675 675 674 674 673 673 674 674 674 673 672
739 738 738 738 737 737 736 736 735 735 735 734 734 733 732 732 731 730 729 728 727 726 725 725 723 722 720 719 717 715 714 712 710 708 706 704 702 700 699 697 695 694 692 690 688 686 685 683 682 680 679 677 676 675 675 674 673 673 673 673 673 672 672 672 672 672 672 671 670
738 738 738 737 737 736 736 735 735 735 734 734 734 733 732 731 731 730 729 728 727 727 726 725 723 722 720 719 717 716 714 712 710 708 706 705 703 701 699 697 696 694 693 691 689 687 686 684 683 681 680 678 678 677 675 674 673 673 672 672 671 671 671 670 670 670 670 669 668
738 738 737 737 736 736 735 735 735 735 734 734 733 733 732 731 731 730 729 728 727 726 726 725 724 722 721 719 718 716 715 713 711 709 707 705 703 701 700 698 696 695 693 692 690 689 687 685 684 682 681 679 678 677 676 675 674 674 673 672 672 672 671 671 670 669 668 667 667
738 738 737 737 736 736 735 735 735 734 734 734 733 732 732 731 730 730 729 728 727 726 726 725 724 722 721 720 718 716 715 713 711 710 708 706 704 702 700 699 697 695 694 692 691 690 688 686 685 683 682 680 679 678 677 676 675 675 674 673 673 672 672 671 670 669 668 667 666
738 738 737 736 736 735 735 735 734 734 734 733 733 732 731 731 730 730 729 728 727 726 726 725 724 723 721 720 718 717 715 713 712 710 708 706 705 703 701 700 698 696 695 693 691 690 689 688 686 685 683 682 680 679 678 676 676 675 675 674 673 672 671 670 670 669 668 667 666
738 737 737 736 736 735 735 735 734 734 734 733 732 732 731 731 730 730 729 728 727 726 726 725 724 723 721 720 719 717 715 714 712 711 709 707 706 704 702 700 699 697 695 694 692 691 690 689 687 686 685 683 682 680 679 677 676 676 675 675 674 673 672 671 670 669 668 667 666
738 737 737 736 736 735 735 734 734 734 733 733 732 731 731 730 730 730 729 728 727 726 726 725 724 723 722 720 719 718 716 715 713 711 710 708 706 705 703 701 700 698 696 695 693 692 690 690 689 687 686 685 683 682 680 679 678 677 676 675 675 674 672 671 670 670 669 668 667
738 737 736 736 735 735 735 734 734 733 733 732 731 731 730 730 730 729 729 728 727 727 726 725 724 723 722 721 720 718 717 715 714 712 710 709 707 705 704 702 700 699 697 696 694 693 691 690 690 689 688 687 685 684 682 681 680 679 678 677 676 675 673 672 671 670 669 669 668
737 737 736 736 735 735 734 734 733 733 732 732 731 731 730 730 730 729 729 728 727 727 726 725 725 724 723 721 720 719 717 716 715 713 711 710 708 706 705 703 702 700 698 697 695 694 692 691 690 690 689 688 687 686 685 683 682 681 680 679 678 677 675 674 672 670 670 669 669
737 736 736 735 735 735 734 733 733 733 732 732 731 730 730 730 729 729 728 728 727 727 726 725 725 724 723 722 720 720 718 717 715 714 712 710 709 708 706 705 703 701 700 698 696 695 694 693 691 691 690 690 689 687 686 685 684 682 681 681 680 679 677 676 674 672 671 670 669
737 736 736 735 735 734 734 733 733 732 732 731 731 730 730 729 729 728 728 727 727 726 726 725 725 724 723 722 721 720 719 718 716 715 713 711 710 709 707 705 704 702 701 700 698 696 695 694 693 692 691 690 690 689 687 686 685 684 683 682 681 680 679 678 677 675 674 672 670
736 736 735 735 735 734 733 733 732 732 732 731 730 730 730 729 729 728 727 727 726 726 726 725 725 724 723 723 721 720 719 718 717 715 714 712 711 709 708 706 705 703 702 700 699 698 696 695 694 693 692 691 690 690 689 687 686 685 684 683 682 681 681 680 679 678 676 675 673
736 736 735 735 734 734 733 732 732 732 731 731 730 730 729 729 728 728 727 727 726 726 725 725 725 724 724 723 722 721 720 719 718 716 715 713 712 710 709 707 706 704 703 702 700 699 698 696 695 694 693 692 691 691 690 689 688 686 685 685 684 683 682 681 680 679 678 677 675
736 735 735 734 734 733 733 732 732 731 731 730 730 730 729 729 728 728 727 727 726 726 725 725 725 724 724 723 722 721 720 719 718 717 715 714 712 711 710 708 707 705 704 703 701 700 699 697 696 695 694 693 692 692 691 690 689 688 687 686 685 684 683 683 682 681 680 679 678
735 735 735 734 733 733 732 732 731 731 731 730 730 729 729 728 728 728 727 727 726 726 725 725 725 724 724 723 722 721 720 720 719 717 716 715 713 712 710 709 708 706 705 704 702 701 700 698 697 696 695 694 693 693 692 691 690 689 688 687 686 685 685 684 683 682 681 680 680
735 735 734 734 733 733 732 732 731 731 730 730 730 729 729 728 728 727 727 727 726 726 725 725 725 724 724 723 722 721 721 720 719 718 717 715 714 713 711 710 709 707 706 705 703 702 700 699 698 697 696 695 694 693 693 692 691 690 690 689 688 687 686 685 684 683 682 681 681
735 734 734 733 733 732 732 732 731 731 730 730 730 729 729 728 728 727 727 727 726 726 725 725 725 724 724 723 722 721 721 720 719 718 717 716 715 714 713 711 710 709 707 706 705 703 702 700 699 698 697 695 695 694 694 693 692 692 691 690 689 688 687 686 685 684 684 683 682
734 734 734 733 733 732 732 732 731 731 730 730 730 729 729 728 728 728 727 727 726 726 726 725 725 724 724 723 722 722 721 720 720 719 718 717 716 715 714 712 711 710 708 707 706 704 703 701 700 699 698 696 695 695 694 694 693 692 692 691 690 690 689 688 687 686 685 684 683
734 734 733 733 733 732 732 732 731 731 730 730 730 729 729 729 728 728 727 727 726 726 726 725 725 724 724 723 723 722 721 721 720 719 719 718 716 715 714 713 712 710 709 708 706 705 704 702 701 700 699 698 697 696 695 694 694 693 693 692 691 690 690 689 688 687 686 685 685
734 733 733 733 732 732 732 732 731 731 730 730 730 730 729 729 729 728 728 727 727 726 726 725 725 724 724 723 723 722 722 721 720 720 719 718 717 716 715 714 712 711 710 709 707 706 704 703 702 701 700 699 698 697 696 695 695 694 693 693 692 692 691 690 690 689 688 687 686
733 733 733 733 732 732 732 731 731 731 730 730 730 730 730 729 729 729 728 728 727 727 726 725 725 725 724 723 723 722 722 721 721 720 719 719 718 717 715 714 713 712 710 709 708 706 705 704 703 702 701 700 699 698 698 697 696 695 694 693 693 692 692 691 690 690 689 689 688
733 733 733 732 732 732 732 731 731 731 730 730 730 730 730 730 729 729 729 728 728 727 726 726 725 725 725 724 723 723 722 722 721 720 720 719 718 717 716 715 713 712 711 710 709 708 706 705 704 703 702 701 700 700 699 698 697 696 695 694 693 693 692 692 692 691 690 690 689
733 733 733 732 732 732 732 731 731 731 730 730 730 730 730 730 730 729 729 728 728 727 727 726 726 725 725 725 724 723 722 722 721 720 720 719 718 717 716 715 714 713 712 711 711 710 708 707 705 704 703 702 702 701 700 700 699 698 697 695 695 694 693 693 692 692 691 691 690
733 732 732 732 732 732 731 731 731 731 730 730 730 730 730 730 730 729 729 728 728 728 727 727 726 726 725 725 724 723 723 722 721 720 720 719 719 718 716 715 714 714 713 713 712 711 710 708 707 706 705 704 703 702 702 701 700 699 698 697 696 695 695 694 693 693 693 692 692
732 732 732 732 732 732 731 731 731 731 730 730 730 730 730 730 730 729 729 729 728 728 727 727 726 726 726 725 725 724 723 722 721 721 720 720 719 718 717 716 715 714 714 714 713 711 710 709 708 707 706 705 704 703 703 702 701 701 700 699 698 697 696 695 695 694 694 693 693
732 732 732 732 732 731 731 731 731 730 730 730 730 730 730 730 730 729 729 729 728 728 728 727 727 726 726 725 725 724 723 723 722 721 721 720 720 719 717 716 715 715 715 714 713 712 711 710 709 708 707 705 705 705 704 703 703 702 701 700 699 698 698 697 696 695 695 694 694
732 732 732 732 731 731 731 731 731 730 730 730 730 730 730 730 730 729 729 729 728 728 728 727 727 726 726 725 725 725 724 723 723 722 721 721 720 720 718 717 716 716 715 715 714 712 711 710 709 708 707 706 706 705 705 705 704 703 702 702 701 700 699 699 698 697 696 695 695
731 731 731 731 731 731 731 731 731 730 730 730 730 730 730 730 729 729 729 729 728 728 728 727 727 726 726 725 725 725 724 724 723 722 722 721 721 720 719 718 717 716 716 715 714 713 712 711 710 709 708 707 707 706 706 705 705 704 704 703 702 702 701 700 699 698 698 697 696
731 731 731 731 731 731 731 731 730 730 730 730 730 730 729 729 729 729 729 729 728 728 728 727 727 727 726 726 725 725 724 724 723 723 722 722 721 721 720 719 718 717 716 715 715 714 712 711 710 710 709 708 708 707 707 706 706 705 705 704 704 703 702 701 701 700 699 698 697
730 730 731 731 731 731 731 730 730 730 730 730 730 730 729 729 729 729 729 728 728 728 728 728 727 727 726 726 726 725 725 724 724 723 723 722 722 722 721 720 719 718 717 716 715 714 713 712 711 710 710 709 708 708 707 707 707 706 706 705 705 704 704 703 702 701 700 699 699
730 730 730 730 730 730 730 730 730 730 730 730 730 730 729 729 729 729 729 728 728 728 728 728 727 727 727 726 726 725 725 725 724 724 723 723 722 722 721 721 720 719 718 717 716 715 714 713 712 711 710 710 709 709 708 708 708 707 707 706 706 705 705 704 703 702 702 701 700
730 730 730 730 730 730 730 730 730 730 730 730 730 730 729 729 729 729 729 728 728 728 728 728 727 727 727 726 726 726 725 725 725 724 724 723 723 722 722 721 720 720 719 718 717 715 714 713 712 711 710 710 710 709 709 709 708 708 707 707 706 706 705 705 704 704 703 702 702
729 729 729 730 730 730 730 730 730 730 730 730 730 729 729 729 729 729 729 728 728 728 728 728 727 727 727 727 726 726 726 725 725 725 724 724 723 723 722 722 721 720 720 719 718 716 715 714 713 712 711 710 710 710 709 709 708 708 707 707 706 706 706 705 705 705 704 704 703
728 728 729 729 729 729 729 729 730 730 730 730 729 729 729 729 729 729 729 728 728 728 728 728 728 727 727 727 727 726 726 726 725 725 724 724 723 723 723 722 721 721 720 719 718 717 716 715 714 712 711 710 710 710 709 709 708 708 707 707 706 706 706 706 705 705 705 704 704
727 728 728 728 729 729 729 729 729 729 729 729 729 729 729 729 729 729 729 728 728 728 728 728 728 727 727 727 727 726 726 726 725 725 725 724 724 723 723 723 722 721 720 720 719 718 717 716 715 713 712 711 710 710 710 709 708 708 707 707 707 706 706 706 706 705 705 705 705
727 727 727 728 728 728 728 728 729 729 729 729 729 729 729 729 729 729 728 728 728 728 728 728 728 727 727 727 727 727 726 726 726 725 725 725 724 724 723 723 722 722 721 720 719 718 717 716 715 714 713 712 711 710 710 709 709 708 708 707 707 707 706 706 706 706 705 705 705
726 726 726 727 727 727 728 728 728 728 728 728 729 729 729 729 729 729 728 728 728 728 728 728 728 727 727 727 727 727 726 726 726 725 725 725 724 724 724 723 723 722 721 721 720 719 718 717 716 715 714 713 712 711 710 710 710 709 708 708 707 707 707 706 706 706 706 706 705
725 725 726 726 726 727 727 727 727 727 728 728 728 728 728 728 728 728 728 728 728 728 728 728 728 727 727 727 727 727 726 726 726 725 725 725 725 724 724 724 723 723 722 721 720 720 719 718 717 716 715 714 713 712 712 711 710 710 709 708 708 707 707 707 706 706 706 706 706
724 725 725 725 725 726 726 726 727 727 727 727 727 728 728 728 728 728 728 728 728 728 728 728 728 727 727 727 727 727 726 726 726 726 725 725 725 725 724 724 724 723 722 721 721 720 719 718 717 716 715 714 714 713 712 712 711 710 709 709 708 708 707 707 707 706 706 706 706
724 724 724 725 725 725 725 726 726 726 726 727 727 727 727 728 728 728 728 728 728 728 728 728 728 727 727 727 727 727 726 726 726 726 725 725 725 725 724 724 724 723 723 722 721 720 720 719 718 717 716 715 714 714 713 712 711 711 710 710 709 709 708 707 707 707 706 706 706
Wind_Speed
9 9 9 9 9 9 9 8 8 9 11 12 14 15 15 16 16 17 17 18 18 19 19 20 21 23 25 25 25 26 26 27 28 28 28 27 27 28 28 29 29 30 31 31 30 28 23 19 16 14 14 14 15 17 18 19 20 21 21 21 22 22 21 20 19 19 19 19 21
10 10 10 9 9 8 8 8 8 9 10 11 13 14 15 15 16 16 17 18 18 19 19 20 22 23 24 25 24 25 25 26 27 27 28 27 27 28 28 28 28 29 30 30 30 29 26 22 20 18 16 15 14 15 16 17 18 19 20 21 21 21 21 20 20 20 21 21 22
10 10 10 10 9 9 9 9 9 9 10 10 11 12 14 14 15 16 16 17 18 18 19 20 22 23 23 24 24 24 25 25 26 27 27 27 28 28 28 28 28 28 28 29 29 29 28 25 23 22 20 17 15 14 14 14 14 15 16 18 20 20 21 21 21 20 17 15 15
10 10 11 10 10 10 10 9 10 10 10 9 10 11 13 14 15 15 16 17 17 18 19 21 22 23 23 23 23 24 24 24 25 26 27 28 28 28 28 28 28 27 27 27 28 28 28 27 25 24 23 22 20 19 17 15 13 11 10 11 12 13 14 15 13 11 8 5 4
10 11 11 10 10 10 10 10 10 10 10 9 9 10 11 13 14 15 16 17 17 18 19 20 21 22 22 22 22 23 23 24 24 25 26 27 28 28 28 28 28 27 27 27 27 27 27 26 25 25 25 25 24 24 22 19 15 13 12 11 10 9 9 10 11 12 11 8 6
11 11 10 10 10 10 10 10 9 9 9 9 9 9 10 12 13 15 16 17 17 18 19 20 21 21 22 21 21 22 23 23 24 24 26 27 27 28 28 28 28 28 27 27 26 26 26 25 25 25 26 25 25 27 27 25 20 16 14 14 13 13 12 12 13 12 12 11 10
10 10 10 10 10 10 10 9 9 9 8 9 9 9 10 11 12 14 15 15 16 18 19 20 21 21 21 21 21 22 22 23 23 24 25 26 26 27 28 28 28 28 27 27 27 26 25 24 24 25 26 26 25 27 29 29 27 23 19 17 17 16 15 15 15 14 14 14 13
9 10 10 9 9 9 9 9 8 8 8 8 9 10 10 10 11 12 13 14 16 17 18 19 20 21 21 21 21 21 22 22 23 23 24 25 26 27 27 28 28 28 27 27 27 26 25 24 23 24 25 26 26 27 29 29 29 27 25 22 22 21 20 20 19 18 17 17 16
9 9 9 9 8 8 8 8 7 7 8 9 10 10 9 10 10 11 12 14 15 16 17 18 19 19 20 20 20 21 21 22 22 23 23 24 25 26 27 27 28 28 27 27 27 27 26 24 24 24 24 26 26 27 28 28 28 27 26 25 24 24 23 23 22 21 20 19 19
9 9 9 9 8 8 7 7 6 7 8 9 10 10 10 10 10 11 12 13 14 15 16 17 17 18 19 19 20 20 21 21 22 22 23 24 25 25 26 27 27 27 27 27 27 27 26 26 25 24 24 25 26 27 28 28 27 27 26 25 25 25 24 24 23 23 22 21 20
9 9 9 9 8 8 7 6 6 7 8 9 11 11 10 10 11 12 12 13 13 14 15 15 16 17 18 18 19 20 20 21 21 21 22 23 24 24 25 26 26 27 27 27 27 27 27 26 27 25 23 24 25 27 28 27 27 26 26 25 25 25 25 24 24 23 23 22 21
8 8 8 8 8 8 7 7 7 7 8 9 10 11 11 11 12 12 13 13 13 14 14 14 15 16 17 18 18 19 19 20 20 21 21 22 23 23 24 25 26 26 26 26 26 26 26 27 27 26 24 23 24 26 27 27 26 26 26 26 26 25 25 24 24 23 22 22 22
8 8 8 8 8 8 8 7 7 7 8 9 10 11 11 12 12 13 13 14 14 14 14 15 14 15 16 17 17 17 18 19 19 20 21 21 22 22 23 24 25 25 26 25 26 25 26 26 27 27 26 24 23 25 26 26 26 26 26 26 26 25 25 24 23 22 22 22 22
7 7 8 8 8 8 8 8 8 8 8 9 10 11 11 11 12 13 13 14 14 14 14 15 15 15 15 16 16 16 17 18 18 19 20 20 21 22 23 24 25 25 25 26 25 25 25 25 26 26 26 25 23 24 25 26 26 27 27 26 25 25 25 24 24 23 22 21 21
6 7 7 7 8 8 9 9 8 8 8 9 10 10 11 11 12 12 13 14 14 14 14 15 15 15 15 15 16 16 17 17 17 18 19 19 20 21 22 24 24 25 26 26 25 25 24 24 25 26 26 26 24 23 24 25 26 26 27 26 26 25 25 24 24 23 22 21 20
6 6 7 7 7 8 8 9 9 9 9 9 10 10 11 11 12 12 13 14 14 14 14 14 15 15 15 15 16 16 16 16 17 17 18 19 20 21 22 23 24 25 25 26 26 25 24 23 23 24 25 26 24 23 23 24 25 25 26 26 26 26 26 25 24 24 23 22 20
5 6 6 7 7 8 8 8 8 9 9 9 10 10 11 11 12 12 13 13 13 13 14 14 15 15 15 16 16 16 16 16 17 17 17 18 19 20 21 22 23 24 25 25 26 25 24 23 22 23 24 26 25 24 22 23 23 24 25 25 26 26 26 26 25 24 24 23 22
5 5 6 6 7 7 7 8 8 8 8 9 10 10 11 11 12 12 13 13 13 13 13 14 14 15 15 16 16 16 16 17 17 17 17 17 17 18 20 21 22 23 24 25 25 25 24 23 22 22 24 25 25 25 23 22 22 23 24 24 25 26 26 27 26 25 24 23 23
5 5 5 6 6 6 6 7 7 7 8 9 9 10 10 11 12 12 12 12 12 12 12 13 13 14 15 16 16 16 16 16 17 17 17 16 16 17 18 20 21 22 23 24 24 24 23 22 22 22 23 24 25 25 24 23 23 23 23 23 23 24 25 27 27 26 25 24 23
5 5 5 5 5 6 6 6 6 6 7 8 8 9 10 10 11 12 12 12 12 12 12 12 13 14 15 15 16 16 16 16 16 16 16 16 16 17 18 19 21 22 23 23 24 24 23 22 21 21 22 23 24 25 25 24 24 24 23 23 23 23 24 25 26 27 26 26 25
5 5 4 4 5 5 5 5 5 6 6 7 8 8 9 9 10 10 11 12 12 12 12 12 13 13 14 15 16 16 16 16 16 16 16 16 16 16 17 19 20 22 23 24 24 25 24 22 21 21 21 22 23 24 25 24 24 24 24 23 23 22 22 23 25 26 27 26 26
5 4 4 4 4 5 5 5 5 5 6 6 6 7 7 8 9 9 10 11 11 12 12 13 13 13 14 14 15 15 15 15 16 16 16 16 16 16 17 18 20 22 23 24 25 25 24 23 21 20 20 21 21 22 23 24 24 23 24 24 24 23 23 23 23 24 25 26 26
4 4 4 4 4 4 4 4 4 4 5 5 5 6 6 7 7 8 9 10 10 11 11 12 12 13 13 13 14 15 15 15 16 16 16 16 16 16 17 18 20 21 23 24 25 25 24 23 21 19 19 20 20 21 22 23 23 23 23 23 24 23 23 24 23 23 24 25 25
4 4 4 4 4 4 4 4 4 4 4 4 4 5 5 6 6 7 8 8 9 9 10 11 11 11 11 12 13 14 14 15 15 16 16 17 17 17 18 18 20 21 22 23 24 24 23 23 21 19 18 18 19 20 21 21 22 22 22 23 23 23 23 23 24 24 24 24 24
4 4 4 4 4 5 5 4 4 4 4 3 4 4 5 5 5 6 6 7 8 8 9 9 10 10 10 11 12 13 14 14 15 15 16 16 17 18 18 19 20 21 22 23 23 23 22 22 20 18 17 17 18 19 19 20 21 21 22 22 23 23 22 23 23 24 24 24 22
3 3 3 3 4 4 5 4 4 4 3 3 4 4 5 5 5 5 6 6 7 7 7 8 9 9 9 10 11 12 13 14 14 15 15 16 16 18 19 19 20 21 22 23 23 23 22 21 20 18 17 16 17 18 18 19 19 20 21 22 23 23 22 22 23 23 23 22 22
3 3 2 3 3 4 4 4 4 4 3 3 4 4 5 5 5 5 5 6 6 6 6 7 8 9 9 9 10 11 12 13 14 14 14 15 16 17 18 19 20 21 22 22 23 23 22 21 20 18 17 16 16 17 17 18 18 19 20 22 23 23 23 22 22 21 21 21 21
3 2 1 1 2 3 4 4 4 4 4 3 4 4 5 5 4 5 5 5 6 6 6 7 7 8 9 9 10 11 11 12 13 13 13 14 15 16 17 19 20 21 22 22 23 23 22 22 20 19 17 16 15 16 16 17 17 18 19 20 22 23 23 22 22 21 21 21 21
2 2 1 1 2 2 3 4 4 4 4 4 4 4 4 4 4 4 4 5 6 6 6 7 7 8 9 9 10 10 11 12 12 12 13 13 13 15 16 18 19 21 22 22 23 23 23 22 20 19 17 16 15 15 15 16 17 17 18 18 20 21 22 22 22 22 21 20 20
2 2 1 1 2 2 2 3 3 4 4 4 4 4 4 4 4 4 4 5 6 6 6 6 6 7 8 9 9 10 10 11 12 12 12 13 13 14 15 17 19 20 21 22 23 23 23 22 21 19 17 16 15 15 15 15 16 16 17 18 19 20 21 21 22 22 22 21 20
2 2 2 2 2 2 2 2 3 3 4 4 4 4 4 4 4 4 4 5 5 5 5 6 6 6 7 8 8 9 10 10 11 12 12 12 12 12 14 16 18 19 21 22 22 23 22 22 21 19 17 16 15 15 14 14 15 15 16 17 18 19 19 20 21 22 22 22 21
3 2 2 2 2 2 1 1 1 2 3 4 4 4 4 4 4 4 4 4 5 5 5 5 6 6 6 7 8 8 9 10 11 11 12 11 11 12 13 15 17 18 20 21 22 22 22 22 21 19 17 16 16 15 14 14 14 15 16 16 17 18 18 19 20 21 22 22 21
3 3 3 3 3 2 1 1 0 1 2 3 4 4 4 3 4 4 4 4 5 5 5 5 5 6 6 7 7 8 8 9 10 11 11 11 11 11 12 14 16 17 19 20 21 21 22 22 20 19 17 16 16 15 15 15 15 15 16 17 17 17 18 18 19 20 21 21 21
3 3 3 3 3 2 1 0 0 0 1 2 3 3 3 3 3 4 4 5 5 5 5 5 5 6 6 6 7 7 7 8 9 10 10 10 10 11 11 13 15 17 18 19 20 21 21 21 20 19 17 16 16 16 16 16 16 17 17 17 17 18 17 17 18 18 19 20 21
4 4 4 3 3 3 2 1 1 1 0 1 2 3 3 3 3 4 4 5 5 5 5 5 5 5 5 6 6 6 7 7 8 9 10 10 10 10 11 12 14 15 17 18 19 20 21 21 20 19 17 17 17 16 16 16 17 17 17 17 18 18 18 17 17 17 18 18 19
4 5 4 4 3 3 2 2 2 1 1 0 1 2 2 2 3 4 4 4 4 4 4 5 5 5 6 6 6 6 7 7 7 8 9 9 10 10 10 11 13 15 16 17 18 19 20 20 20 19 18 17 17 16 16 16 17 18 18 18 18 18 18 18 17 16 17 17 18
5 5 5 5 4 3 3 2 2 2 2 1 0 1 2 2 2 3 4 4 4 4 4 5 5 6 6 6 6 6 6 6 7 7 8 9 9 10 10 10 12 14 15 17 18 19 19 20 19 19 18 17 16 16 16 16 17 18 18 18 18 18 18 17 17 16 16 16 16
5 5 6 6 5 4 3 3 3 3 2 2 1 1 1 1 1 2 3 4 4 4 4 4 5 6 6 6 6 6 6 6 6 7 7 8 9 9 10 10 11 13 15 16 17 18 19 19 19 18 18 17 16 15 15 15 16 18 18 19 18 18 17 17 16 16 15 16 15
6 5 6 7 6 5 4 3 3 3 3 3 2 2 1 1 1 2 3 3 3 3 3 4 5 5 5 5 5 6 6 6 6 7 7 8 8 9 9 10 11 12 13 15 16 17 18 19 19 18 17 16 16 15 15 15 16 17 18 18 18 18 17 17 16 15 15 16 15
6 5 6 7 7 6 5 4 3 2 3 3 3 3 2 2 1 1 2 3 3 3 3 3 4 5 5 5 5 6 6 6 6 6 7 7 8 8 9 10 10 11 12 14 16 17 18 18 19 18 18 17 16 16 15 15 15 16 17 18 18 17 16 16 15 15 15 15 15
6 5 5 6 6 6 6 5 4 3 3 4 4 4 3 3 2 1 1 2 3 3 3 3 4 4 4 5 5 6 6 6 6 6 7 7 8 9 9 9 10 10 12 13 15 16 17 18 18 18 18 17 16 16 16 16 16 16 17 17 17 16 16 16 15 15 15 15 15
Wind_Direction
3 359 356 352 346 341 338 337 338 339 339 338 338 338 338 338 336 336 337 338 338 339 340 341 343 345 347 350 353 355 357 359 2 3 4 3 3 3 5 9 12 15 15 15 12 8 2 353 341 327 315 306 300 295 290 285 278 273 270 268 269 269 268 265 262 260 260 260 261
3 1 358 355 350 345 341 338 336 338 339 339 339 339 340 339 339 338 338 339 341 342 343 344 346 348 349 352 355 357 359 0 2 4 5 5 6 6 7 10 13 16 17 17 16 14 11 5 358 350 341 331 321 312 306 302 291 281 274 272 272 272 271 269 267 266 265 264 262
2 359 357 355 354 351 346 341 337 336 338 339 339 340 341 341 341 340 340 341 344 346 346 347 349 350 351 354 357 359 0 2 3 5 6 7 8 9 9 11 14 17 18 18 17 17 17 15 10 3 357 352 349 344 337 328 317 299 285 278 276 275 275 275 276 276 275 270 264
360 356 355 355 355 353 349 344 339 338 338 339 339 341 342 343 344 344 344 345 348 349 350 350 351 352 354 356 358 0 2 3 5 6 8 9 10 10 11 12 14 16 17 18 17 17 18 18 15 11 5 1 360 359 359 357 354 343 325 308 296 289 288 292 302 315 327 325 295
356 354 354 355 355 353 351 348 344 342 340 339 341 342 343 344 346 347 348 348 350 351 353 354 354 355 356 359 360 1 3 4 6 8 9 10 11 12 13 14 14 15 17 17 17 16 16 16 16 13 10 7 4 2 1 2 6 9 9 7 4 359 357 358 1 3 3 0 352
350 350 354 357 356 353 351 352 350 347 344 340 341 344 346 347 349 349 350 350 352 355 356 356 357 358 359 1 2 3 4 6 7 9 10 11 12 12 13 14 15 16 16 17 17 16 15 15 15 14 13 11 8 8 8 7 6 7 10 13 14 13 11 9 8 6 4 1 359
344 346 351 357 356 353 352 355 354 351 347 343 342 346 350 350 350 351 352 355 357 358 358 358 359 0 2 2 3 4 5 6 8 10 11 11 12 13 13 14 15 16 16 16 16 16 15 15 15 14 14 12 11 11 13 14 11 9 8 10 12 13 13 14 14 13 11 9 8
343 346 351 357 357 355 357 360 356 353 350 346 346 349 352 352 352 352 355 358 359 359 359 360 1 3 4 4 4 5 5 7 8 10 11 12 12 13 14 15 15 15 15 16 16 16 15 15 15 16 16 15 13 13 15 18 16 14 11 11 13 16 17 18 18 17 16 15 14
345 347 354 360 1 2 4 4 358 354 352 347 348 352 356 355 354 354 356 358 359 360 1 2 4 5 5 6 6 6 6 7 8 10 12 13 13 14 14 15 15 14 14 15 15 15 15 15 14 15 18 18 16 15 17 20 19 16 14 14 15 18 20 19 18 16 17 17 18
347 349 355 1 5 8 9 8 2 359 355 348 351 358 2 358 357 356 357 358 359 1 2 3 5 6 6 6 6 7 8 9 9 11 12 14 15 15 15 15 15 14 14 15 15 16 15 15 13 14 17 20 19 19 19 20 19 18 16 16 17 19 19 19 16 15 15 16 17
349 351 357 2 6 9 12 13 11 6 358 352 357 4 7 2 359 358 358 359 360 1 2 3 5 6 6 6 7 8 10 11 12 13 14 15 16 17 17 16 16 16 16 16 16 16 15 15 13 13 15 19 21 21 20 20 20 19 18 18 19 19 20 19 17 15 14 14 14
350 354 360 6 7 10 13 17 18 12 2 356 1 7 8 4 360 360 2 2 1 1 2 3 5 6 6 6 8 10 11 12 13 15 15 16 17 18 18 18 18 18 17 17 17 17 16 15 14 12 12 15 20 21 20 20 20 20 20 20 20 20 20 19 18 17 15 14 14
351 355 2 8 10 11 14 19 21 16 5 360 5 10 9 4 1 1 4 4 3 2 2 2 5 7 6 7 9 12 14 14 16 17 18 18 19 19 19 19 19 18 18 18 18 18 18 17 16 14 12 13 17 20 20 20 21 21 21 20 20 21 20 20 20 19 18 17 15
353 358 4 10 12 12 14 18 21 17 9 4 9 12 10 5 2 2 4 4 4 4 4 3 4 6 6 7 9 12 14 15 17 18 19 20 21 21 20 20 20 19 18 18 18 19 20 19 17 16 14 13 14 17 20 21 22 22 22 21 20 20 21 21 21 21 20 19 17
355 0 6 10 13 14 15 17 19 17 12 9 13 15 12 8 4 3 3 3 4 5 5 5 4 5 5 7 8 11 12 14 17 19 20 21 22 22 21 21 21 20 18 18 19 20 21 20 19 18 16 15 14 16 18 21 22 22 23 22 21 21 21 21 22 22 21 20 19
358 4 8 11 13 16 16 16 17 16 14 14 16 16 13 9 7 5 4 4 5 6 7 6 6 5 5 6 7 9 11 13 16 18 20 21 22 22 22 22 21 20 19 17 18 19 21 22 21 20 19 18 15 15 17 20 22 23 23 23 23 22 22 22 22 23 23 22 21
360 6 10 11 14 16 17 15 15 16 16 18 18 17 14 10 7 6 6 6 7 7 7 7 7 8 7 7 8 9 11 13 15 18 20 21 21 22 23 23 21 20 19 17 17 18 20 22 23 22 22 21 18 16 16 19 22 23 23 23 24 24 24 23 23 23 24 24 24
0 6 10 12 15 16 17 16 16 17 19 21 20 18 15 11 7 5 6 8 8 8 7 8 8 9 10 10 10 11 12 14 15 17 18 20 21 22 24 24 23 21 20 18 16 17 19 21 22 23 23 23 21 18 17 17 21 23 23 24 24 25 25 25 25 25 25 25 25
2 7 10 12 15 17 17 17 17 19 22 23 21 18 15 11 6 4 4 7 9 9 8 8 9 10 12 13 12 12 13 14 14 16 17 18 20 21 23 24 24 22 20 18 16 17 19 22 22 23 23 23 22 20 19 18 20 22 23 23 24 24 25 26 26 26 26 27 28
4 6 10 13 15 16 18 18 20 23 24 23 20 16 13 10 5 3 2 5 8 9 10 10 10 11 13 14 14 13 13 13 14 15 17 18 18 20 22 23 24 23 20 18 16 16 19 23 24 24 23 23 22 21 20 19 20 22 23 23 23 23 25 26 27 27 27 27 29
4 8 12 17 19 19 19 21 24 26 24 21 17 13 9 6 2 0 0 2 5 8 11 12 13 12 13 14 14 14 13 13 15 16 17 17 18 19 21 23 24 23 22 19 16 15 17 22 25 25 25 24 23 22 20 20 21 22 23 24 24 23 24 25 26 27 27 27 27
2 10 16 22 23 23 22 25 28 26 23 17 12 9 5 1 358 357 356 358 2 6 10 13 14 14 13 14 14 13 13 14 16 17 18 18 18 18 20 23 24 24 22 20 17 15 15 19 23 26 26 24 24 22 21 21 22 23 24 25 25 25 24 24 25 26 26 26 26
356 8 18 27 29 28 26 27 31 28 22 14 11 8 4 360 356 352 352 354 358 2 7 11 14 15 15 14 15 14 14 15 16 18 19 19 19 18 20 22 23 23 22 20 17 15 14 16 19 24 27 26 24 22 22 22 23 23 24 25 26 26 25 24 24 24 25 25 25
345 1 17 30 32 30 28 30 32 30 24 20 17 15 11 5 357 352 351 353 356 359 3 6 11 14 15 14 15 15 15 14 15 16 18 20 19 19 19 21 23 23 21 19 18 16 15 15 16 21 26 27 25 22 22 22 23 24 24 24 25 25 25 25 24 24 24 24 24
327 346 8 26 31 28 28 29 30 31 32 32 31 27 22 14 5 357 355 356 358 360 1 3 8 12 15 15 15 15 16 15 14 14 15 17 18 18 19 21 22 21 20 18 17 17 17 17 17 19 25 28 25 23 22 22 22 24 24 24 24 24 23 24 25 25 24 23 23
306 326 351 14 21 21 22 25 30 33 39 44 44 38 31 22 11 4 0 2 3 3 3 3 7 12 16 17 16 16 16 17 16 15 14 15 16 17 18 20 20 19 18 16 16 16 17 17 18 21 26 30 28 24 21 20 21 23 24 25 25 24 23 22 23 24 25 25 24
282 304 331 357 360 4 11 23 30 36 43 51 49 42 35 26 15 8 8 9 9 9 8 8 10 12 15 18 19 18 18 17 18 18 17 16 17 17 17 17 18 18 16 15 15 16 16 17 18 21 25 30 29 26 23 20 19 21 23 23 24 24 23 21 21 22 24 26 26
259 279 307 326 323 337 356 15 26 34 42 52 53 46 39 31 21 17 15 14 14 14 15 15 13 12 15 20 21 21 19 19 20 20 20 19 19 18 17 16 17 16 15 14 14 15 16 17 18 20 23 27 28 27 25 22 21 21 22 22 22 22 22 22 22 22 23 25 26
243 257 260 251 270 305 336 2 19 31 41 53 60 53 44 35 28 24 22 22 20 19 19 18 15 15 18 22 23 22 21 20 20 20 22 24 22 19 17 15 15 14 14 14 14 15 16 17 18 20 22 25 26 27 27 25 23 23 22 22 22 22 22 22 22 23 24 25 25
230 231 217 215 233 272 313 349 12 27 38 53 64 60 49 40 32 28 28 29 27 24 22 21 18 19 22 23 24 23 22 21 20 21 24 26 24 20 17 15 15 14 14 13 14 15 16 17 18 20 22 24 26 27 26 26 25 24 23 23 23 22 22 22 23 23 24 25 26
216 209 203 208 219 250 294 341 4 17 28 46 61 62 52 41 32 30 33 35 32 27 24 24 23 22 23 24 25 25 23 22 20 22 25 27 25 21 17 16 16 16 15 13 14 14 15 17 19 21 23 25 26 27 26 26 25 25 24 24 23 23 23 23 23 24 24 26 26
206 197 193 201 214 237 276 334 356 4 16 33 54 59 50 39 32 34 41 44 37 30 26 27 26 25 24 25 27 27 25 22 21 22 25 28 27 24 19 15 17 17 16 15 14 14 15 16 19 21 24 26 28 28 27 26 25 25 25 24 23 23 24 24 24 24 24 25 26
199 191 190 197 208 225 255 316 353 354 4 23 46 52 48 36 30 37 47 51 42 33 30 30 29 28 27 27 27 27 26 24 23 22 24 28 30 27 22 18 17 17 18 17 16 15 15 16 18 21 24 27 30 30 28 27 27 26 26 25 24 24 24 25 25 25 24 24 24
194 186 188 194 200 208 220 251 186 324 353 11 35 48 48 35 26 31 43 52 45 38 33 32 33 31 30 30 30 29 28 27 25 25 25 28 30 30 26 21 17 17 18 19 18 18 17 16 18 21 24 27 30 30 28 26 26 26 26 26 27 26 25 24 25 25 25 23 22
193 181 181 186 190 192 196 196 177 177 225 359 25 43 52 42 25 27 40 53 49 42 36 34 35 36 35 34 33 31 31 30 28 27 27 28 30 31 29 24 19 18 19 20 20 20 19 18 17 19 23 26 28 28 26 24 23 23 24 25 26 26 25 24 25 26 27 25 23
194 180 174 177 180 182 185 182 171 166 171 341 19 38 55 55 31 27 39 57 57 49 40 34 34 37 38 36 33 32 33 33 32 30 29 30 31 32 31 26 20 19 20 21 21 21 20 20 19 19 21 24 25 24 23 22 21 21 21 22 23 24 24 23 23 25 27 28 25
198 181 173 172 174 177 177 174 169 167 167 168 79 43 60 68 41 26 34 57 62 55 42 32 31 34 38 37 33 31 33 36 37 34 32 31 32 33 32 28 23 20 20 22 22 22 22 22 21 21 21 22 21 20 19 19 18 18 18 19 20 21 21 21 21 22 24 26 26
202 186 176 172 173 173 172 170 171 170 164 159 146 103 83 84 59 29 31 49 59 56 43 31 29 31 36 38 35 33 34 37 38 38 36 33 32 32 32 30 25 21 20 22 23 23 23 23 22 23 23 24 22 20 18 17 16 15 16 16 16 16 17 18 18 18 19 21 23
204 191 180 174 173 170 167 168 175 172 161 152 148 146 133 108 84 38 28 40 54 57 47 33 28 30 34 37 36 36 36 37 37 38 39 37 34 34 33 32 28 23 21 22 24 24 24 24 23 24 24 26 25 22 20 17 15 14 13 13 12 11 11 13 14 13 13 14 15
203 193 181 174 170 167 164 168 177 174 154 146 148 151 144 121 99 47 26 34 49 58 55 41 33 32 33 34 34 36 39 39 35 36 39 41 39 37 35 34 31 27 24 23 24 24 25 24 24 24 25 26 26 24 21 18 15 13 11 10 8 7 6 6 8 8 7 8 8
202 194 181 172 169 166 166 170 178 171 145 134 136 136 132 123 116 71 24 31 46 56 58 47 39 37 37 36 34 34 37 39 36 34 37 41 42 40 37 35 34 32 28 25 25 25 25 25 24 24 24 25 25 25 22 19 17 14 11 8 6 4 1 0 1 3 3 3 3